Time,TemperatureF,DewpointF,PressureIn,WindDirection,WindDirectionDegrees,WindSpeedMPH,WindSpeedGustMPH,Humidity,HourlyPrecipIn,Conditions,Clouds,dailyrainin,SoftwareType,DateUTC
2013-01-25 00:00:00,42.0,23.2,30.01,WSW,250,20.0,22.0,47,0.00,CLR,CLR,0.00,WeatherDisplay:10.34,2013-01-25 07:00:00,
2013-01-25 00:05:00,41.9,22.6,30.02,WSW,248,20.0,20.0,46,0.00,CLR,CLR,0.00,WeatherDisplay:10.34,2013-01-25 07:05:00,
2013-01-25 00:10:00,41.7,22.4,30.02,SW,227,15.0,0.0,46,0.00,CLR,CLR,0.00,WeatherDisplay:10.34,2013-01-25 07:10:00,
2013-01-25 00:15:00,41.5,22.7,30.02,SW,229,19.0,19.0,47,0.00,CLR,CLR,0.00,WeatherDisplay:10.34,2013-01-25 07:15:00,
2013-01-25 00:20:00,41.8,23.0,30.02,SW,225,26.0,28.0,47,0.00,CLR,CLR,0.00,WeatherDisplay:10.34,2013-01-25 07:20:00,
2013-01-25 00:25:00,42.4,23.1,30.02,SW,230,23.0,32.0,46,0.00,CLR,CLR,0.00,WeatherDisplay:10.34,2013-01-25 07:25:00,
2013-01-25 00:30:00,42.4,23.1,30.02,WSW,245,26.0,28.0,46,0.00,CLR,CLR,0.00,WeatherDisplay:10.34,2013-01-25 07:30:00,
2013-01-25 00:35:00,42.4,23.1,30.01,WSW,258,23.0,25.0,46,0.00,CLR,CLR,0.00,WeatherDisplay:10.34,2013-01-25 07:35:00,
2013-01-25 00:40:00,42.4,23.1,30.01,WSW,244,22.0,22.0,46,0.00,CLR,CLR,0.00,WeatherDisplay:10.34,2013-01-25 07:40:00,
2013-01-25 00:45:00,42.4,23.1,30.00,SW,233,18.0,22.0,46,0.00,CLR,CLR,0.00,WeatherDisplay:10.34,2013-01-25 07:45:00,
2013-01-25 00:50:00,42.2,22.9,30.00,SW,231,18.0,22.0,46,0.00,CLR,CLR,0.00,WeatherDisplay:10.34,2013-01-25 07:50:00,
2013-01-25 00:55:00,41.8,22.5,30.00,SW,224,16.0,16.0,46,0.00,CLR,CLR,0.00,WeatherDisplay:10.34,2013-01-25 07:55:00,
2013-01-25 01:00:00,41.6,22.3,30.00,SW,222,18.0,18.0,46,0.00,CLR,CLR,0.00,WeatherDisplay:10.34,2013-01-25 08:00:00,
2013-01-25 01:05:00,41.4,22.7,30.00,SW,236,15.0,20.0,47,0.00,CLR,CLR,0.00,WeatherDisplay:10.34,2013-01-25 08:05:00,
2013-01-25 01:10:00,41.1,21.9,30.01,SW,215,18.0,21.0,46,0.00,CLR,CLR,0.00,WeatherDisplay:10.34,2013-01-25 08:10:00,
2013-01-25 01:15:00,41.1,21.9,30.01,SW,215,21.0,23.0,46,0.00,CLR,CLR,0.00,WeatherDisplay:10.34,2013-01-25 08:15:00,
2013-01-25 01:20:00,40.9,22.2,30.01,SW,217,14.0,15.0,47,0.00,CLR,CLR,0.00,WeatherDisplay:10.34,2013-01-25 08:20:00,
2013-01-25 01:25:00,40.7,22.0,30.00,SW,223,18.0,23.0,47,0.00,CLR,CLR,0.00,WeatherDisplay:10.34,2013-01-25 08:25:00,
2013-01-25 01:30:00,40.9,22.2,30.00,SSW,211,16.0,16.0,47,0.00,CLR,CLR,0.00,WeatherDisplay:10.34,2013-01-25 08:30:00,
2013-01-25 01:35:00,41.1,21.9,30.00,SW,219,16.0,17.0,46,0.00,CLR,CLR,0.00,WeatherDisplay:10.34,2013-01-25 08:35:00,
2013-01-25 01:40:00,41.3,22.1,30.00,WSW,238,15.0,15.0,46,0.00,CLR,CLR,0.00,WeatherDisplay:10.34,2013-01-25 08:40:00,
2013-01-25 01:45:00,41.5,22.2,30.00,WSW,241,20.0,20.0,46,0.00,CLR,CLR,0.00,WeatherDisplay:10.34,2013-01-25 08:45:00,
2013-01-25 01:50:00,41.9,22.1,30.00,WSW,241,20.0,21.0,45,0.00,CLR,CLR,0.00,WeatherDisplay:10.34,2013-01-25 08:50:00,
2013-01-25 01:55:00,42.1,22.3,30.00,WSW,241,17.0,22.0,45,0.00,CLR,CLR,0.00,WeatherDisplay:10.34,2013-01-25 08:55:00,
2013-01-25 02:00:00,42.2,22.4,30.00,WSW,247,17.0,17.0,45,0.00,CLR,CLR,0.00,WeatherDisplay:10.34,2013-01-25 09:00:00,
2013-01-25 02:05:00,42.1,22.3,30.00,West,259,16.0,16.0,45,0.00,CLR,CLR,0.00,WeatherDisplay:10.34,2013-01-25 09:05:00,
2013-01-25 02:10:00,42.0,22.2,30.00,SW,234,18.0,18.0,45,0.00,CLR,CLR,0.00,WeatherDisplay:10.34,2013-01-25 09:10:00,
2013-01-25 02:15:00,41.9,22.1,30.00,SW,226,21.0,24.0,45,0.00,CLR,CLR,0.00,WeatherDisplay:10.34,2013-01-25 09:15:00,
2013-01-25 02:20:00,41.7,22.4,30.00,SW,221,16.0,16.0,46,0.00,CLR,CLR,0.00,WeatherDisplay:10.34,2013-01-25 09:20:00,
2013-01-25 02:25:00,41.6,22.3,30.00,SW,214,14.0,20.0,46,0.00,CLR,CLR,0.00,WeatherDisplay:10.34,2013-01-25 09:25:00,
2013-01-25 02:30:00,41.6,22.3,30.00,SSW,207,16.0,17.0,46,0.00,CLR,CLR,0.00,WeatherDisplay:10.34,2013-01-25 09:30:00,
2013-01-25 02:35:00,41.4,22.1,30.00,South,184,18.0,21.0,46,0.00,CLR,CLR,0.00,WeatherDisplay:10.34,2013-01-25 09:35:00,
2013-01-25 02:40:00,41.1,21.9,30.00,South,184,17.0,17.0,46,0.00,CLR,CLR,0.00,WeatherDisplay:10.34,2013-01-25 09:40:00,
2013-01-25 02:45:00,39.8,21.2,30.00,SSW,192,11.0,11.0,47,0.00,CLR,CLR,0.00,WeatherDisplay:10.34,2013-01-25 09:45:00,
2013-01-25 02:50:00,38.7,21.2,30.00,South,190,13.0,13.0,49,0.00,CLR,CLR,0.00,WeatherDisplay:10.34,2013-01-25 09:50:00,
2013-01-25 02:55:00,38.9,21.3,30.00,SSW,194,11.0,11.0,49,0.00,CLR,CLR,0.00,WeatherDisplay:10.34,2013-01-25 09:55:00,
2013-01-25 03:00:00,39.0,21.4,30.00,SSW,210,8.0,8.0,49,0.00,,,0.00,WeatherDisplay:10.34,2013-01-25 10:00:00,
2013-01-25 03:05:00,39.0,21.4,30.00,SSW,210,11.0,12.0,49,0.00,,,0.00,WeatherDisplay:10.34,2013-01-25 10:05:00,
2013-01-25 03:10:00,40.2,21.6,30.00,South,175,23.0,23.0,47,0.00,,,0.00,WeatherDisplay:10.34,2013-01-25 10:10:00,
2013-01-25 03:15:00,41.9,21.5,30.00,SSW,194,19.0,22.0,44,0.00,,,0.00,WeatherDisplay:10.34,2013-01-25 10:15:00,
2013-01-25 03:20:00,43.0,21.4,30.00,SSW,194,28.0,28.0,42,0.00,,,0.00,WeatherDisplay:10.34,2013-01-25 10:20:00,
2013-01-25 03:25:00,43.5,21.3,29.99,SW,223,22.0,22.0,41,0.00,,,0.00,WeatherDisplay:10.34,2013-01-25 10:25:00,
2013-01-25 03:30:00,43.1,21.5,29.99,SSW,202,27.0,27.0,42,0.00,,,0.00,WeatherDisplay:10.34,2013-01-25 10:30:00,
2013-01-25 03:35:00,43.3,21.1,29.99,SSW,207,17.0,17.0,41,0.00,,,0.00,WeatherDisplay:10.34,2013-01-25 10:35:00,
2013-01-25 03:40:00,42.7,21.2,29.98,SSW,199,23.0,24.0,42,0.00,,,0.00,WeatherDisplay:10.34,2013-01-25 10:40:00,
2013-01-25 03:45:00,42.2,20.7,29.98,SSW,205,18.0,21.0,42,0.00,,,0.00,WeatherDisplay:10.34,2013-01-25 10:45:00,
2013-01-25 03:50:00,41.7,20.8,29.98,SSW,205,19.0,20.0,43,0.00,,,0.00,WeatherDisplay:10.34,2013-01-25 10:50:00,
2013-01-25 03:55:00,42.0,21.1,29.98,SW,215,24.0,24.0,43,0.00,,,0.00,WeatherDisplay:10.34,2013-01-25 10:55:00,
2013-01-25 04:00:00,42.5,21.0,29.98,SW,222,19.0,20.0,42,0.00,CLR,CLR,0.00,WeatherDisplay:10.34,2013-01-25 11:00:00,
2013-01-25 04:05:00,42.8,20.7,29.99,SSW,208,24.0,24.0,41,0.00,CLR,CLR,0.00,WeatherDisplay:10.34,2013-01-25 11:05:00,
2013-01-25 04:10:00,43.8,21.0,29.99,SSW,194,27.0,32.0,40,0.00,CLR,CLR,0.00,WeatherDisplay:10.34,2013-01-25 11:10:00,
2013-01-25 04:15:00,43.9,21.1,29.98,SSW,192,28.0,28.0,40,0.00,CLR,CLR,0.00,WeatherDisplay:10.34,2013-01-25 11:15:00,
2013-01-25 04:20:00,44.7,21.2,29.98,SSW,207,24.0,24.0,39,0.00,CLR,CLR,0.00,WeatherDisplay:10.34,2013-01-25 11:20:00,
2013-01-25 04:25:00,44.6,20.5,29.97,SSW,202,17.0,17.0,38,0.00,CLR,CLR,0.00,WeatherDisplay:10.34,2013-01-25 11:25:00,
2013-01-25 04:30:00,44.1,20.7,29.97,SSW,202,21.0,25.0,39,0.00,CLR,CLR,0.00,WeatherDisplay:10.34,2013-01-25 11:30:00,
2013-01-25 04:35:00,44.6,21.1,29.97,SSW,200,27.0,27.0,39,0.00,CLR,CLR,0.00,WeatherDisplay:10.34,2013-01-25 11:35:00,
2013-01-25 04:40:00,44.1,20.7,29.97,SSW,198,15.0,21.0,39,0.00,CLR,CLR,0.00,WeatherDisplay:10.34,2013-01-25 11:40:00,
2013-01-25 04:45:00,43.9,20.5,29.97,SSW,200,19.0,19.0,39,0.00,CLR,CLR,0.00,WeatherDisplay:10.34,2013-01-25 11:45:00,
2013-01-25 04:50:00,43.9,21.1,29.97,SSW,202,17.0,24.0,40,0.00,CLR,CLR,0.00,WeatherDisplay:10.34,2013-01-25 11:50:00,
2013-01-25 04:55:00,43.9,21.7,29.97,SW,221,22.0,22.0,41,0.00,CLR,CLR,0.00,WeatherDisplay:10.34,2013-01-25 11:55:00,
2013-01-25 05:00:00,44.2,21.4,29.97,SW,217,28.0,28.0,40,0.00,,,0.00,WeatherDisplay:10.34,2013-01-25 12:00:00,
2013-01-25 05:05:00,44.6,21.1,29.97,South,190,28.0,33.0,39,0.00,,,0.00,WeatherDisplay:10.34,2013-01-25 12:05:00,
2013-01-25 05:10:00,45.0,21.5,29.97,SSW,213,14.0,22.0,39,0.00,CLR,CLR,0.00,WeatherDisplay:10.34,2013-01-25 12:10:00,
2013-01-25 05:15:00,44.4,22.1,29.97,SSW,199,20.0,23.0,41,0.00,,,0.00,WeatherDisplay:10.34,2013-01-25 12:15:00,
2013-01-25 05:20:00,43.8,22.2,29.97,SW,214,16.0,0.0,42,0.00,,,0.00,WeatherDisplay:10.34,2013-01-25 12:20:00,
2013-01-25 05:25:00,43.4,21.8,29.97,SW,226,13.0,15.0,42,0.00,,,0.00,WeatherDisplay:10.34,2013-01-25 12:25:00,
2013-01-25 05:30:00,43.0,22.5,29.97,SSW,197,29.0,29.0,44,0.00,,,0.00,WeatherDisplay:10.34,2013-01-25 12:30:00,
2013-01-25 05:35:00,43.0,22.0,29.96,SW,214,18.0,21.0,43,0.00,,,0.00,WeatherDisplay:10.34,2013-01-25 12:35:00,
2013-01-25 05:40:00,43.3,22.3,29.96,SW,216,16.0,24.0,43,0.00,CLR,CLR,0.00,WeatherDisplay:10.34,2013-01-25 12:40:00,
2013-01-25 05:45:00,43.6,22.5,29.97,SW,221,21.0,24.0,43,0.00,,,0.00,WeatherDisplay:10.34,2013-01-25 12:45:00,
2013-01-25 05:50:00,43.5,23.1,29.97,SW,220,22.0,25.0,44,0.00,CLR,CLR,0.00,WeatherDisplay:10.34,2013-01-25 12:50:00,
2013-01-25 05:55:00,43.8,23.3,29.97,SSW,202,33.0,33.0,44,0.00,,,0.00,WeatherDisplay:10.34,2013-01-25 12:55:00,
2013-01-25 06:00:00,44.9,23.2,29.97,SSW,206,28.0,28.0,42,0.00,CLR,CLR,0.00,WeatherDisplay:10.34,2013-01-25 13:00:00,
2013-01-25 06:05:00,45.4,23.0,29.97,SW,229,28.0,28.0,41,0.00,CLR,CLR,0.00,WeatherDisplay:10.34,2013-01-25 13:05:00,
2013-01-25 06:10:00,45.8,22.8,29.97,SW,218,22.0,31.0,40,0.00,CLR,CLR,0.00,WeatherDisplay:10.34,2013-01-25 13:10:00,
2013-01-25 06:15:00,45.9,22.9,29.97,SW,234,23.0,24.0,40,0.00,CLR,CLR,0.00,WeatherDisplay:10.34,2013-01-25 13:15:00,
2013-01-25 06:20:00,46.0,23.0,29.97,SW,225,31.0,31.0,40,0.00,CLR,CLR,0.00,WeatherDisplay:10.34,2013-01-25 13:20:00,
2013-01-25 06:25:00,46.3,22.7,29.97,SW,230,20.0,21.0,39,0.00,CLR,CLR,0.00,WeatherDisplay:10.34,2013-01-25 13:25:00,
2013-01-25 06:30:00,46.1,23.1,29.97,SW,233,23.0,31.0,40,0.00,CLR,CLR,0.00,WeatherDisplay:10.34,2013-01-25 13:30:00,
2013-01-25 06:36:00,46.4,22.8,29.96,SW,232,28.0,28.0,39,0.00,CLR,CLR,0.00,WeatherDisplay:10.34,2013-01-25 13:36:00,
2013-01-25 06:41:00,47.0,22.0,29.96,SW,215,24.0,28.0,37,0.00,CLR,CLR,0.00,WeatherDisplay:10.34,2013-01-25 13:41:00,
2013-01-25 06:46:00,47.0,22.7,29.97,SW,222,17.0,17.0,38,0.00,CLR,CLR,0.00,WeatherDisplay:10.34,2013-01-25 13:46:00,
2013-01-25 06:51:00,46.4,22.8,29.97,SSW,206,26.0,28.0,39,0.00,CLR,CLR,0.00,WeatherDisplay:10.34,2013-01-25 13:51:00,
2013-01-25 06:56:00,45.5,22.5,29.97,SSE,157,10.0,15.0,40,0.00,CLR,CLR,0.00,WeatherDisplay:10.34,2013-01-25 13:56:00,
2013-01-25 07:01:00,43.3,21.7,29.98,South,172,10.0,10.0,42,0.00,OVC,OVC,0.00,WeatherDisplay:10.34,2013-01-25 14:01:00,
2013-01-25 07:06:00,42.1,21.7,29.98,SSE,165,15.0,15.0,44,0.00,OVC,OVC,0.00,WeatherDisplay:10.34,2013-01-25 14:06:00,
2013-01-25 07:11:00,42.3,21.4,29.98,SSE,153,12.0,12.0,43,0.00,OVC,OVC,0.00,WeatherDisplay:10.34,2013-01-25 14:11:00,
2013-01-25 07:16:00,41.9,21.5,29.98,SSE,165,8.0,8.0,44,0.00,OVC,OVC,0.00,WeatherDisplay:10.34,2013-01-25 14:16:00,
2013-01-25 07:21:00,41.2,21.4,29.98,SSE,152,11.0,11.0,45,0.00,OVC,OVC,0.00,WeatherDisplay:10.34,2013-01-25 14:21:00,
2013-01-25 07:26:00,41.0,21.3,29.98,SSE,155,8.0,8.0,45,0.00,OVC,OVC,0.00,WeatherDisplay:10.34,2013-01-25 14:26:00,
2013-01-25 07:31:00,41.0,21.3,29.99,SSW,194,4.0,4.0,45,0.00,OVC,OVC,0.00,WeatherDisplay:10.34,2013-01-25 14:31:00,
2013-01-25 07:36:00,40.7,21.5,29.99,East,95,7.0,9.0,46,0.00,OVC,OVC,0.00,WeatherDisplay:10.34,2013-01-25 14:36:00,
2013-01-25 07:41:00,39.4,21.3,29.99,ENE,65,0.0,2.0,48,0.00,OVC,OVC,0.00,WeatherDisplay:10.34,2013-01-25 14:41:00,
2013-01-25 07:46:00,37.9,20.9,29.99,WSW,241,9.0,20.0,50,0.00,OVC,OVC,0.00,WeatherDisplay:10.34,2013-01-25 14:46:00,
2013-01-25 07:51:00,40.0,23.3,29.99,WSW,242,19.0,20.0,51,0.00,CLR,CLR,0.00,WeatherDisplay:10.34,2013-01-25 14:51:00,
2013-01-25 07:56:00,39.8,21.2,30.00,ENE,74,1.0,5.0,47,0.00,CLR,CLR,0.00,WeatherDisplay:10.34,2013-01-25 14:56:00,
2013-01-25 08:01:00,37.9,20.9,30.00,NE,42,1.0,5.0,50,0.00,CLR,CLR,0.00,WeatherDisplay:10.34,2013-01-25 15:01:00,
2013-01-25 08:06:00,36.5,21.0,29.99,ENE,59,7.0,9.0,53,0.00,CLR,CLR,0.00,WeatherDisplay:10.34,2013-01-25 15:06:00,
2013-01-25 08:11:00,35.5,21.3,29.99,ESE,106,8.0,9.0,56,0.00,CLR,CLR,0.00,WeatherDisplay:10.34,2013-01-25 15:11:00,
2013-01-25 08:16:00,35.4,21.7,29.99,East,88,3.0,3.0,57,0.00,CLR,CLR,0.00,WeatherDisplay:10.34,2013-01-25 15:16:00,
2013-01-25 08:21:00,35.5,23.4,29.99,SE,129,7.0,9.0,61,0.00,SCT,SCT,0.00,WeatherDisplay:10.34,2013-01-25 15:21:00,
2013-01-25 08:26:00,36.0,22.2,29.99,SE,141,1.0,2.0,57,0.00,BKN,BKN,0.00,WeatherDisplay:10.34,2013-01-25 15:26:00,
2013-01-25 08:31:00,37.3,23.4,29.99,SSW,195,10.0,14.0,57,0.00,BKN,BKN,0.00,WeatherDisplay:10.34,2013-01-25 15:31:00,
2013-01-25 08:36:00,40.5,25.1,29.99,SW,221,21.0,23.0,54,0.00,BKN,BKN,0.00,WeatherDisplay:10.34,2013-01-25 15:36:00,
2013-01-25 08:41:00,42.7,25.3,30.00,WSW,249,6.0,8.0,50,0.00,BKN,BKN,0.00,WeatherDisplay:10.34,2013-01-25 15:41:00,
2013-01-25 08:46:00,42.9,24.0,30.00,West,263,4.0,10.0,47,0.00,BKN,BKN,0.00,WeatherDisplay:10.34,2013-01-25 15:46:00,
2013-01-25 08:51:00,37.5,20.1,30.00,NE,35,16.0,16.0,49,0.00,BKN,BKN,0.00,WeatherDisplay:10.34,2013-01-25 15:51:00,
2013-01-25 08:56:00,32.2,19.5,30.00,NNE,15,11.0,12.0,59,0.00,BKN,BKN,0.00,WeatherDisplay:10.34,2013-01-25 15:56:00,
2013-01-25 09:01:00,30.9,19.8,30.00,NNE,21,5.0,7.0,63,0.00,BKN,BKN,0.00,WeatherDisplay:10.34,2013-01-25 16:01:00,
2013-01-25 09:06:00,30.7,20.7,30.00,NE,51,3.0,3.0,66,0.00,SCT,SCT,0.00,WeatherDisplay:10.34,2013-01-25 16:06:00,
2013-01-25 09:11:00,30.9,21.2,30.00,SSW,205,5.0,5.0,67,0.00,SCT,SCT,0.00,WeatherDisplay:10.34,2013-01-25 16:11:00,
2013-01-25 09:16:00,31.6,21.9,30.00,NNW,338,8.0,10.0,67,0.00,SCT,SCT,0.00,WeatherDisplay:10.34,2013-01-25 16:16:00,
2013-01-25 09:21:00,31.4,21.3,30.01,NE,56,8.0,9.0,66,0.00,SCT,SCT,0.00,WeatherDisplay:10.34,2013-01-25 16:21:00,
2013-01-25 09:26:00,31.4,21.7,30.01,NW,319,5.0,5.0,67,0.00,SCT,SCT,0.00,WeatherDisplay:10.34,2013-01-25 16:26:00,
2013-01-25 09:31:00,31.1,21.4,30.00,NNW,338,9.0,9.0,67,0.00,SCT,SCT,0.00,WeatherDisplay:10.34,2013-01-25 16:31:00,
2013-01-25 09:36:00,30.7,21.7,30.00,NNW,332,7.0,8.0,69,0.00,SCT,SCT,0.00,WeatherDisplay:10.34,2013-01-25 16:36:00,
2013-01-25 09:41:00,30.9,22.3,30.00,NNW,333,8.0,8.0,70,0.00,SCT,SCT,0.00,WeatherDisplay:10.34,2013-01-25 16:41:00,
2013-01-25 09:46:00,31.2,22.5,30.00,NNW,337,4.0,4.0,70,0.00,SCT,SCT,0.00,WeatherDisplay:10.34,2013-01-25 16:46:00,
2013-01-25 09:51:00,31.7,23.0,30.01,NW,314,7.0,7.0,70,0.00,SCT,SCT,0.00,WeatherDisplay:10.34,2013-01-25 16:51:00,
2013-01-25 09:56:00,32.1,23.4,30.01,NNW,329,5.0,5.0,70,0.00,SCT,SCT,0.00,WeatherDisplay:10.34,2013-01-25 16:56:00,
2013-01-25 10:01:00,32.5,23.5,30.01,NNW,334,6.0,7.0,69,0.00,FEW,FEW,0.00,WeatherDisplay:10.34,2013-01-25 17:01:00,
2013-01-25 10:06:00,33.0,23.9,30.01,NW,311,2.0,5.0,69,0.00,FEW,FEW,0.00,WeatherDisplay:10.34,2013-01-25 17:06:00,
2013-01-25 10:11:00,33.6,24.2,30.01,NW,325,1.0,1.0,68,0.00,FEW,FEW,0.00,WeatherDisplay:10.34,2013-01-25 17:11:00,
2013-01-25 10:16:00,34.3,24.5,30.01,WNW,303,2.0,3.0,67,0.00,FEW,FEW,0.00,WeatherDisplay:10.34,2013-01-25 17:16:00,
2013-01-25 10:21:00,34.8,24.6,30.01,NW,319,6.0,7.0,66,0.00,FEW,FEW,0.00,WeatherDisplay:10.34,2013-01-25 17:21:00,
2013-01-25 10:26:00,35.4,24.4,30.01,WNW,292,4.0,5.0,64,0.00,FEW,FEW,0.00,WeatherDisplay:10.34,2013-01-25 17:26:00,
2013-01-25 10:31:00,35.9,24.9,30.02,WNW,302,4.0,7.0,64,0.00,CLR,CLR,0.00,WeatherDisplay:10.34,2013-01-25 17:31:00,
2013-01-25 10:36:00,36.5,25.5,30.02,NNW,348,8.0,9.0,64,0.00,CLR,CLR,0.00,WeatherDisplay:10.34,2013-01-25 17:36:00,
2013-01-25 10:41:00,37.0,25.6,30.01,NNW,329,5.0,5.0,63,0.00,CLR,CLR,0.00,WeatherDisplay:10.34,2013-01-25 17:41:00,
2013-01-25 10:46:00,37.4,25.6,30.01,NNW,337,2.0,3.0,62,0.00,CLR,CLR,0.00,WeatherDisplay:10.34,2013-01-25 17:46:00,
2013-01-25 10:52:00,38.0,26.1,30.01,NW,308,5.0,5.0,62,0.00,CLR,CLR,0.00,WeatherDisplay:10.34,2013-01-25 17:52:00,
2013-01-25 10:57:00,38.5,26.2,30.01,NW,311,1.0,1.0,61,0.00,CLR,CLR,0.00,WeatherDisplay:10.34,2013-01-25 17:57:00,
2013-01-25 11:02:00,39.3,26.6,30.01,NW,311,2.0,3.0,60,0.00,CLR,CLR,0.00,WeatherDisplay:10.34,2013-01-25 18:02:00,
2013-01-25 11:07:00,39.7,26.5,30.01,NW,310,2.0,2.0,59,0.00,CLR,CLR,0.00,WeatherDisplay:10.34,2013-01-25 18:07:00,
2013-01-25 11:12:00,40.1,26.5,30.01,WNW,282,4.0,5.0,58,0.00,CLR,CLR,0.00,WeatherDisplay:10.34,2013-01-25 18:12:00,
2013-01-25 11:17:00,40.5,26.4,30.01,NW,311,5.0,5.0,57,0.00,FEW,FEW,0.00,WeatherDisplay:10.34,2013-01-25 18:17:00,
2013-01-25 11:22:00,40.6,26.1,30.01,NNW,336,6.0,7.0,56,0.00,FEW,FEW,0.00,WeatherDisplay:10.34,2013-01-25 18:22:00,
2013-01-25 11:27:00,40.5,26.4,30.01,NNW,341,10.0,10.0,57,0.00,CLR,CLR,0.00,WeatherDisplay:10.34,2013-01-25 18:27:00,
2013-01-25 11:32:00,40.5,26.4,30.01,North,355,9.0,9.0,57,0.00,CLR,CLR,0.00,WeatherDisplay:10.34,2013-01-25 18:32:00,
2013-01-25 11:37:00,40.6,26.5,30.01,NNE,32,13.0,13.0,57,0.00,CLR,CLR,0.00,WeatherDisplay:10.34,2013-01-25 18:37:00,
2013-01-25 11:42:00,39.9,26.3,29.99,NE,50,8.0,10.0,58,0.00,CLR,CLR,0.00,WeatherDisplay:10.34,2013-01-25 18:42:00,
2013-01-25 11:47:00,40.2,26.6,29.99,North,355,7.0,9.0,58,0.00,FEW,FEW,0.00,WeatherDisplay:10.34,2013-01-25 18:47:00,
2013-01-25 11:52:00,39.9,26.3,29.99,North,360,13.0,13.0,58,0.00,FEW,FEW,0.00,WeatherDisplay:10.34,2013-01-25 18:52:00,
2013-01-25 11:57:00,39.2,26.1,29.99,North,349,14.0,16.0,59,0.00,FEW,FEW,0.00,WeatherDisplay:10.34,2013-01-25 18:57:00,
2013-01-25 12:02:00,38.6,25.9,29.99,North,360,13.0,13.0,60,0.00,FEW,FEW,0.00,WeatherDisplay:10.34,2013-01-25 19:02:00,
2013-01-25 12:07:00,38.5,26.2,29.99,NNW,344,13.0,13.0,61,0.00,CLR,CLR,0.00,WeatherDisplay:10.34,2013-01-25 19:07:00,
2013-01-25 12:12:00,38.9,26.6,29.99,NNE,18,10.0,12.0,61,0.00,FEW,FEW,0.00,WeatherDisplay:10.34,2013-01-25 19:12:00,
2013-01-25 12:17:00,39.6,27.2,29.99,NNW,346,8.0,8.0,61,0.00,CLR,CLR,0.00,WeatherDisplay:10.34,2013-01-25 19:17:00,
2013-01-25 12:22:00,40.3,27.1,29.98,ENE,69,8.0,8.0,59,0.00,FEW,FEW,0.00,WeatherDisplay:10.34,2013-01-25 19:22:00,
2013-01-25 12:27:00,41.0,27.8,29.98,NNE,13,7.0,7.0,59,0.00,CLR,CLR,0.00,WeatherDisplay:10.34,2013-01-25 19:27:00,
2013-01-25 12:32:00,41.9,28.2,29.98,North,360,6.0,9.0,58,0.00,CLR,CLR,0.00,WeatherDisplay:10.34,2013-01-25 19:32:00,
2013-01-25 12:37:00,42.7,28.9,29.98,NNW,348,5.0,8.0,58,0.00,CLR,CLR,0.00,WeatherDisplay:10.34,2013-01-25 19:37:00,
2013-01-25 12:42:00,43.7,29.5,29.98,ENE,61,7.0,10.0,57,0.00,CLR,CLR,0.00,WeatherDisplay:10.34,2013-01-25 19:42:00,
2013-01-25 12:47:00,44.7,29.5,29.98,ENE,61,7.0,7.0,55,0.00,CLR,CLR,0.00,WeatherDisplay:10.34,2013-01-25 19:47:00,
2013-01-25 12:52:00,45.4,29.3,29.97,East,82,5.0,8.0,53,0.00,CLR,CLR,0.00,WeatherDisplay:10.34,2013-01-25 19:52:00,
2013-01-25 12:57:00,45.9,30.2,29.97,NE,42,5.0,7.0,54,0.00,CLR,CLR,0.00,WeatherDisplay:10.34,2013-01-25 19:57:00,
2013-01-25 13:02:00,46.6,29.4,29.97,East,82,3.0,3.0,51,0.00,CLR,CLR,0.00,WeatherDisplay:10.34,2013-01-25 20:02:00,
2013-01-25 13:07:00,47.0,28.8,29.97,WNW,290,9.0,10.0,49,0.00,CLR,CLR,0.00,WeatherDisplay:10.34,2013-01-25 20:07:00,
2013-01-25 13:12:00,47.1,28.9,29.95,North,11,9.0,9.0,49,0.00,FEW,FEW,0.00,WeatherDisplay:10.34,2013-01-25 20:12:00,
2013-01-25 13:17:00,46.8,29.1,29.95,ENE,59,8.0,10.0,50,0.00,FEW,FEW,0.00,WeatherDisplay:10.34,2013-01-25 20:17:00,
2013-01-25 13:22:00,47.0,29.3,29.95,East,92,7.0,8.0,50,0.00,CLR,CLR,0.00,WeatherDisplay:10.34,2013-01-25 20:22:00,
2013-01-25 13:27:00,46.8,29.6,29.95,NE,53,7.0,8.0,51,0.00,CLR,CLR,0.00,WeatherDisplay:10.34,2013-01-25 20:27:00,
2013-01-25 13:32:00,46.9,29.7,29.95,ESE,103,5.0,5.0,51,0.00,CLR,CLR,0.00,WeatherDisplay:10.34,2013-01-25 20:32:00,
2013-01-25 13:37:00,47.1,29.9,29.95,East,101,11.0,12.0,51,0.00,CLR,CLR,0.00,WeatherDisplay:10.34,2013-01-25 20:37:00,
2013-01-25 13:42:00,46.7,29.5,29.94,ENE,78,14.0,14.0,51,0.00,CLR,CLR,0.00,WeatherDisplay:10.34,2013-01-25 20:42:00,
2013-01-25 13:47:00,46.5,29.8,29.94,ENE,58,5.0,7.0,52,0.00,CLR,CLR,0.00,WeatherDisplay:10.34,2013-01-25 20:47:00,
2013-01-25 13:52:00,46.7,30.0,29.94,ENE,74,6.0,9.0,52,0.00,CLR,CLR,0.00,WeatherDisplay:10.34,2013-01-25 20:52:00,
2013-01-25 13:57:00,47.0,29.8,29.94,East,96,8.0,9.0,51,0.00,FEW,FEW,0.00,WeatherDisplay:10.34,2013-01-25 20:57:00,
2013-01-25 14:02:00,47.2,29.5,29.93,ENE,68,6.0,7.0,50,0.00,CLR,CLR,0.00,WeatherDisplay:10.34,2013-01-25 21:02:00,
2013-01-25 14:07:00,47.7,30.0,29.93,ENE,77,3.0,3.0,50,0.00,CLR,CLR,0.00,WeatherDisplay:10.34,2013-01-25 21:07:00,
2013-01-25 14:12:00,48.3,30.0,29.93,East,83,5.0,7.0,49,0.00,CLR,CLR,0.00,WeatherDisplay:10.34,2013-01-25 21:12:00,
2013-01-25 14:17:00,48.7,30.4,29.93,East,95,10.0,10.0,49,0.00,CLR,CLR,0.00,WeatherDisplay:10.34,2013-01-25 21:17:00,
2013-01-25 14:22:00,48.4,30.1,29.92,ESE,110,7.0,9.0,49,0.00,FEW,FEW,0.00,WeatherDisplay:10.34,2013-01-25 21:22:00,
2013-01-25 14:27:00,47.6,30.3,29.92,East,86,11.0,12.0,51,0.00,CLR,CLR,0.00,WeatherDisplay:10.34,2013-01-25 21:27:00,
2013-01-25 14:32:00,46.9,29.7,29.92,East,88,11.0,12.0,51,0.00,CLR,CLR,0.00,WeatherDisplay:10.34,2013-01-25 21:32:00,
2013-01-25 14:37:00,46.3,29.6,29.92,East,87,8.0,9.0,52,0.00,CLR,CLR,0.00,WeatherDisplay:10.34,2013-01-25 21:37:00,
2013-01-25 14:42:00,46.1,29.4,29.92,East,89,9.0,9.0,52,0.00,CLR,CLR,0.00,WeatherDisplay:10.34,2013-01-25 21:42:00,
2013-01-25 14:47:00,45.9,29.7,29.92,East,83,9.0,9.0,53,0.00,CLR,CLR,0.00,WeatherDisplay:10.34,2013-01-25 21:47:00,
2013-01-25 14:52:00,45.8,30.1,29.93,ESE,122,11.0,13.0,54,0.00,CLR,CLR,0.00,WeatherDisplay:10.34,2013-01-25 21:52:00,
2013-01-25 14:57:00,45.7,30.0,29.93,ESE,116,12.0,12.0,54,0.00,CLR,CLR,0.00,WeatherDisplay:10.34,2013-01-25 21:57:00,
2013-01-25 15:02:00,45.8,30.1,29.93,ESE,116,8.0,9.0,54,0.00,CLR,CLR,0.00,WeatherDisplay:10.34,2013-01-25 22:02:00,
2013-01-25 15:07:00,46.0,30.3,29.93,NNE,28,4.0,5.0,54,0.00,CLR,CLR,0.00,WeatherDisplay:10.34,2013-01-25 22:07:00,
2013-01-25 15:12:00,46.3,30.1,29.93,NE,40,3.0,3.0,53,0.00,CLR,CLR,0.00,WeatherDisplay:10.34,2013-01-25 22:12:00,
2013-01-25 15:17:00,46.6,29.9,29.93,East,85,8.0,9.0,52,0.00,CLR,CLR,0.00,WeatherDisplay:10.34,2013-01-25 22:17:00,
2013-01-25 15:22:00,46.5,30.3,29.92,NE,48,4.0,4.0,53,0.00,CLR,CLR,0.00,WeatherDisplay:10.34,2013-01-25 22:22:00,
2013-01-25 15:27:00,46.7,30.0,29.92,NE,45,7.0,7.0,52,0.00,CLR,CLR,0.00,WeatherDisplay:10.34,2013-01-25 22:27:00,
2013-01-25 15:32:00,46.5,29.8,29.92,ENE,61,2.0,3.0,52,0.00,CLR,CLR,0.00,WeatherDisplay:10.34,2013-01-25 22:32:00,
2013-01-25 15:37:00,46.7,30.5,29.92,NE,51,6.0,7.0,53,0.00,CLR,CLR,0.00,WeatherDisplay:10.34,2013-01-25 22:37:00,
2013-01-25 15:42:00,46.8,29.6,29.92,ENE,64,10.0,10.0,51,0.00,CLR,CLR,0.00,WeatherDisplay:10.34,2013-01-25 22:42:00,
2013-01-25 15:47:00,46.4,29.2,29.92,NNE,26,3.0,3.0,51,0.00,BKN,BKN,0.00,WeatherDisplay:10.34,2013-01-25 22:47:00,
2013-01-25 15:52:00,46.1,29.4,29.93,NNW,343,6.0,7.0,52,0.00,CLR,CLR,0.00,WeatherDisplay:10.34,2013-01-25 22:52:00,
2013-01-25 15:57:00,45.4,28.8,29.93,NNE,14,5.0,7.0,52,0.00,CLR,CLR,0.00,WeatherDisplay:10.34,2013-01-25 22:57:00,
2013-01-25 16:02:00,45.0,28.4,29.93,NE,36,5.0,5.0,52,0.00,CLR,CLR,0.00,WeatherDisplay:10.34,2013-01-25 23:02:00,
2013-01-25 16:07:00,44.9,28.8,29.93,NE,40,2.0,2.0,53,0.00,SCT,SCT,0.00,WeatherDisplay:10.34,2013-01-25 23:07:00,
2013-01-25 16:12:00,44.8,28.7,29.93,East,84,7.0,9.0,53,0.00,CLR,CLR,0.00,WeatherDisplay:10.34,2013-01-25 23:12:00,
2013-01-25 16:17:00,44.7,28.6,29.93,ENE,77,4.0,4.0,53,0.00,CLR,CLR,0.00,WeatherDisplay:10.34,2013-01-25 23:17:00,
2013-01-25 16:22:00,44.8,28.7,29.93,ENE,65,4.0,4.0,53,0.00,CLR,CLR,0.00,WeatherDisplay:10.34,2013-01-25 23:22:00,
2013-01-25 16:27:00,45.0,28.4,29.93,ENE,74,7.0,9.0,52,0.00,CLR,CLR,0.00,WeatherDisplay:10.34,2013-01-25 23:27:00,
2013-01-25 16:32:00,44.9,28.8,29.93,East,80,8.0,8.0,53,0.00,CLR,CLR,0.00,WeatherDisplay:10.34,2013-01-25 23:32:00,
2013-01-25 16:37:00,44.6,29.0,29.93,ENE,61,2.0,2.0,54,0.00,CLR,CLR,0.00,WeatherDisplay:10.34,2013-01-25 23:37:00,
2013-01-25 16:42:00,44.6,28.5,29.93,ENE,59,1.0,3.0,53,0.00,CLR,CLR,0.00,WeatherDisplay:10.34,2013-01-25 23:42:00,
2013-01-25 16:47:00,44.4,28.3,29.93,ENE,58,3.0,3.0,53,0.00,CLR,CLR,0.00,WeatherDisplay:10.34,2013-01-25 23:47:00,
2013-01-25 16:52:00,44.1,28.5,29.93,NE,55,1.0,2.0,54,0.00,CLR,CLR,0.00,WeatherDisplay:10.34,2013-01-25 23:52:00,
2013-01-25 16:57:00,43.6,28.0,29.93,NNW,340,5.0,5.0,54,0.00,CLR,CLR,0.00,WeatherDisplay:10.34,2013-01-25 23:57:00,
2013-01-25 17:02:00,42.6,27.1,29.93,NW,319,3.0,3.0,54,0.00,CLR,CLR,0.00,WeatherDisplay:10.34,2013-01-26 00:02:00,
2013-01-25 17:07:00,41.2,26.7,29.93,NW,304,3.0,3.0,56,0.00,OVC,OVC,0.00,WeatherDisplay:10.34,2013-01-26 00:07:00,
2013-01-25 17:12:00,40.5,26.4,29.93,North,5,7.0,7.0,57,0.00,OVC,OVC,0.00,WeatherDisplay:10.34,2013-01-26 00:12:00,
2013-01-25 17:17:00,39.6,26.0,29.93,WSW,237,4.0,4.0,58,0.00,OVC,OVC,0.00,WeatherDisplay:10.34,2013-01-26 00:17:00,
2013-01-25 17:22:00,39.2,26.1,29.92,North,350,6.0,7.0,59,0.00,OVC,OVC,0.00,WeatherDisplay:10.34,2013-01-26 00:22:00,
2013-01-25 17:27:00,38.6,25.9,29.92,NNW,327,3.0,3.0,60,0.00,OVC,OVC,0.00,WeatherDisplay:10.34,2013-01-26 00:27:00,
2013-01-25 17:32:00,38.3,25.6,29.93,NW,326,2.0,3.0,60,0.00,OVC,OVC,0.00,WeatherDisplay:10.34,2013-01-26 00:32:00,
2013-01-25 17:37:00,38.0,25.7,29.93,NW,326,0.0,0.0,61,0.00,OVC,OVC,0.00,WeatherDisplay:10.34,2013-01-26 00:37:00,
2013-01-25 17:42:00,37.8,25.5,29.93,NW,326,0.0,0.0,61,0.00,OVC,OVC,0.00,WeatherDisplay:10.34,2013-01-26 00:42:00,
2013-01-25 17:47:00,37.6,25.4,29.92,NNW,327,0.0,0.0,61,0.00,OVC,OVC,0.00,WeatherDisplay:10.34,2013-01-26 00:47:00,
2013-01-25 17:52:00,37.0,25.2,29.92,NNW,327,1.0,3.0,62,0.00,OVC,OVC,0.00,WeatherDisplay:10.34,2013-01-26 00:52:00,
2013-01-25 17:57:00,36.5,25.1,29.92,WNW,290,2.0,3.0,63,0.00,OVC,OVC,0.00,WeatherDisplay:10.34,2013-01-26 00:57:00,
2013-01-25 18:02:00,35.9,24.5,29.91,WSW,245,5.0,7.0,63,0.00,CLR,CLR,0.00,WeatherDisplay:10.34,2013-01-26 01:02:00,
2013-01-25 18:07:00,35.6,25.0,29.91,North,9,4.0,4.0,65,0.00,CLR,CLR,0.00,WeatherDisplay:10.34,2013-01-26 01:07:00,
2013-01-25 18:12:00,35.4,24.8,29.91,North,360,0.0,1.0,65,0.00,CLR,CLR,0.00,WeatherDisplay:10.34,2013-01-26 01:12:00,
2013-01-25 18:17:00,35.2,25.0,29.91,North,360,1.0,2.0,66,0.00,CLR,CLR,0.00,WeatherDisplay:10.34,2013-01-26 01:17:00,
2013-01-25 18:22:00,34.9,25.0,29.92,North,360,1.0,1.0,67,0.00,CLR,CLR,0.00,WeatherDisplay:10.34,2013-01-26 01:22:00,
2013-01-25 18:27:00,34.7,24.9,29.92,North,360,2.0,2.0,67,0.00,CLR,CLR,0.00,WeatherDisplay:10.34,2013-01-26 01:27:00,
2013-01-25 18:32:00,34.5,24.7,29.92,North,360,3.0,3.0,67,0.00,CLR,CLR,0.00,WeatherDisplay:10.34,2013-01-26 01:32:00,
2013-01-25 18:37:00,34.4,24.9,29.92,North,360,2.0,2.0,68,0.00,CLR,CLR,0.00,WeatherDisplay:10.34,2013-01-26 01:37:00,
2013-01-25 18:42:00,34.4,24.9,29.92,North,360,1.0,1.0,68,0.00,CLR,CLR,0.00,WeatherDisplay:10.34,2013-01-26 01:42:00,
2013-01-25 18:47:00,34.2,24.7,29.92,North,360,0.0,0.0,68,0.00,CLR,CLR,0.00,WeatherDisplay:10.34,2013-01-26 01:47:00,
2013-01-25 18:52:00,34.1,24.6,29.92,North,360,0.0,1.0,68,0.00,CLR,CLR,0.00,WeatherDisplay:10.34,2013-01-26 01:52:00,
2013-01-25 18:57:00,33.9,25.1,29.92,North,360,1.0,1.0,70,0.00,CLR,CLR,0.00,WeatherDisplay:10.34,2013-01-26 01:57:00,
2013-01-25 19:02:00,33.7,25.0,29.92,North,360,1.0,1.0,70,0.00,CLR,CLR,0.00,WeatherDisplay:10.34,2013-01-26 02:02:00,
2013-01-25 19:07:00,33.5,24.8,29.92,North,360,3.0,3.0,70,0.00,CLR,CLR,0.00,WeatherDisplay:10.34,2013-01-26 02:07:00,
2013-01-25 19:12:00,33.3,24.6,29.91,North,360,6.0,6.0,70,0.00,CLR,CLR,0.00,WeatherDisplay:10.34,2013-01-26 02:12:00,
2013-01-25 19:17:00,33.0,24.6,29.91,North,360,0.0,0.0,71,0.00,CLR,CLR,0.00,WeatherDisplay:10.34,2013-01-26 02:17:00,
2013-01-25 19:22:00,33.0,24.6,29.91,North,360,0.0,0.0,71,0.00,CLR,CLR,0.00,WeatherDisplay:10.34,2013-01-26 02:22:00,
2013-01-25 19:27:00,32.7,23.6,29.91,North,360,0.0,0.0,69,0.00,CLR,CLR,0.00,WeatherDisplay:10.34,2013-01-26 02:27:00,
2013-01-25 19:32:00,32.5,24.1,29.91,North,360,0.0,2.0,71,0.00,CLR,CLR,0.00,WeatherDisplay:10.34,2013-01-26 02:32:00,
2013-01-25 19:37:00,32.2,24.2,29.91,North,360,3.0,3.0,72,0.00,CLR,CLR,0.00,WeatherDisplay:10.34,2013-01-26 02:37:00,
2013-01-25 19:42:00,31.7,24.0,29.91,North,360,5.0,5.0,73,0.00,CLR,CLR,0.00,WeatherDisplay:10.34,2013-01-26 02:42:00,
2013-01-25 19:47:00,31.4,24.1,29.91,North,360,0.0,0.0,74,0.00,CLR,CLR,0.00,WeatherDisplay:10.34,2013-01-26 02:47:00,
2013-01-25 19:52:00,31.3,24.3,29.90,North,360,5.0,5.0,75,0.00,CLR,CLR,0.00,WeatherDisplay:10.34,2013-01-26 02:52:00,
2013-01-25 19:57:00,31.4,24.7,29.90,NNW,328,2.0,2.0,76,0.00,CLR,CLR,0.00,WeatherDisplay:10.34,2013-01-26 02:57:00,
2013-01-25 20:02:00,31.5,24.8,29.90,North,355,5.0,7.0,76,0.00,CLR,CLR,0.00,WeatherDisplay:10.34,2013-01-26 03:02:00,
2013-01-25 20:07:00,31.5,24.5,29.90,NNW,329,1.0,1.0,75,0.00,CLR,CLR,0.00,WeatherDisplay:10.34,2013-01-26 03:07:00,
2013-01-25 20:12:00,31.5,24.8,29.89,NNW,329,3.0,3.0,76,0.00,CLR,CLR,0.00,WeatherDisplay:10.34,2013-01-26 03:12:00,
2013-01-25 20:17:00,31.5,24.5,29.89,NNW,329,0.0,1.0,75,0.00,CLR,CLR,0.00,WeatherDisplay:10.34,2013-01-26 03:17:00,
2013-01-25 20:22:00,31.5,24.5,29.89,ENE,61,2.0,2.0,75,0.00,CLR,CLR,0.00,WeatherDisplay:10.34,2013-01-26 03:22:00,
2013-01-25 20:27:00,31.4,24.4,29.89,NNE,24,5.0,5.0,75,0.00,CLR,CLR,0.00,WeatherDisplay:10.34,2013-01-26 03:27:00,
2013-01-25 20:32:00,31.2,24.2,29.89,East,82,6.0,7.0,75,0.00,CLR,CLR,0.00,WeatherDisplay:10.34,2013-01-26 03:32:00,
2013-01-25 20:37:00,31.3,24.6,29.89,WNW,282,1.0,2.0,76,0.00,CLR,CLR,0.00,WeatherDisplay:10.34,2013-01-26 03:37:00,
2013-01-25 20:42:00,31.2,24.5,29.90,NW,315,6.0,8.0,76,0.00,CLR,CLR,0.00,WeatherDisplay:10.34,2013-01-26 03:42:00,
2013-01-25 20:47:00,31.1,24.7,29.89,North,9,5.0,5.0,77,0.00,CLR,CLR,0.00,WeatherDisplay:10.34,2013-01-26 03:47:00,
2013-01-25 20:52:00,31.0,24.6,29.90,NNW,348,4.0,4.0,77,0.00,CLR,CLR,0.00,WeatherDisplay:10.34,2013-01-26 03:52:00,
2013-01-25 20:57:00,30.7,24.3,29.90,NNW,348,0.0,1.0,77,0.00,CLR,CLR,0.00,WeatherDisplay:10.34,2013-01-26 03:57:00,
2013-01-25 21:02:00,30.5,24.1,29.90,NNW,348,3.0,3.0,77,0.00,CLR,CLR,0.00,WeatherDisplay:10.34,2013-01-26 04:02:00,
2013-01-25 21:07:00,30.4,24.1,29.90,NW,304,0.0,1.0,77,0.00,CLR,CLR,0.00,WeatherDisplay:10.34,2013-01-26 04:07:00,
2013-01-25 21:12:00,30.1,23.8,29.90,NE,34,7.0,8.0,77,0.00,CLR,CLR,0.00,WeatherDisplay:10.34,2013-01-26 04:12:00,
2013-01-25 21:17:00,29.9,23.9,29.90,SW,232,0.0,2.0,78,0.00,CLR,CLR,0.00,WeatherDisplay:10.34,2013-01-26 04:17:00,
2013-01-25 21:22:00,29.9,23.9,29.89,SW,232,0.0,1.0,78,0.00,CLR,CLR,0.00,WeatherDisplay:10.34,2013-01-26 04:22:00,
2013-01-25 21:27:00,30.0,24.0,29.89,SW,232,0.0,1.0,78,0.00,CLR,CLR,0.00,WeatherDisplay:10.34,2013-01-26 04:27:00,
2013-01-25 21:32:00,30.0,24.0,29.89,WNW,294,1.0,2.0,78,0.00,CLR,CLR,0.00,WeatherDisplay:10.34,2013-01-26 04:32:00,
2013-01-25 21:37:00,29.9,23.9,29.89,WSW,256,2.0,7.0,78,0.00,CLR,CLR,0.00,WeatherDisplay:10.34,2013-01-26 04:37:00,
2013-01-25 21:42:00,29.9,24.2,29.89,WNW,298,2.0,5.0,79,0.00,CLR,CLR,0.00,WeatherDisplay:10.34,2013-01-26 04:42:00,
2013-01-25 21:47:00,29.9,24.2,29.90,WNW,298,0.0,0.0,79,0.00,CLR,CLR,0.00,WeatherDisplay:10.34,2013-01-26 04:47:00,
2013-01-25 21:52:00,29.8,24.1,29.90,WNW,298,1.0,2.0,79,0.00,CLR,CLR,0.00,WeatherDisplay:10.34,2013-01-26 04:52:00,
2013-01-25 21:57:00,29.8,24.1,29.90,WNW,298,2.0,2.0,79,0.00,CLR,CLR,0.00,WeatherDisplay:10.34,2013-01-26 04:57:00,
2013-01-25 22:00:00,29.7,23.7,29.90,NNW,327,4.0,4.0,78,0.00,CLR,CLR,0.00,WeatherDisplay:10.34,2013-01-26 05:00:00,
2013-01-25 22:01:00,29.6,23.6,29.90,NNW,327,4.0,4.0,78,0.00,CLR,CLR,0.00,WeatherDisplay:10.34,2013-01-26 05:01:00,
2013-01-25 22:03:00,29.6,23.6,29.90,NNW,327,0.0,1.0,78,0.00,CLR,CLR,0.00,WeatherDisplay:10.34,2013-01-26 05:03:00,
2013-01-25 22:06:00,29.5,23.8,29.90,NNW,327,0.0,0.0,79,0.00,CLR,CLR,0.00,WeatherDisplay:10.34,2013-01-26 05:06:00,
2013-01-25 22:11:00,29.2,23.2,29.87,NW,318,3.0,5.0,78,0.00,CLR,CLR,0.00,WeatherDisplay:10.34,2013-01-26 05:11:00,
2013-01-25 22:16:00,29.3,23.6,29.87,NW,314,5.0,5.0,79,0.00,CLR,CLR,0.00,WeatherDisplay:10.34,2013-01-26 05:16:00,
2013-01-25 22:21:00,29.4,23.7,29.88,NNW,331,0.0,2.0,79,0.00,CLR,CLR,0.00,WeatherDisplay:10.34,2013-01-26 05:21:00,
2013-01-25 22:26:00,29.3,23.6,29.88,North,355,4.0,4.0,79,0.00,CLR,CLR,0.00,WeatherDisplay:10.34,2013-01-26 05:26:00,
2013-01-25 22:31:00,29.1,23.4,29.88,WNW,290,4.0,5.0,79,0.00,CLR,CLR,0.00,WeatherDisplay:10.34,2013-01-26 05:31:00,
2013-01-25 22:36:00,29.1,23.4,29.88,NNW,330,2.0,2.0,79,0.00,CLR,CLR,0.00,WeatherDisplay:10.34,2013-01-26 05:36:00,
2013-01-25 22:41:00,29.2,23.5,29.88,NW,324,4.0,4.0,79,0.00,CLR,CLR,0.00,WeatherDisplay:10.34,2013-01-26 05:41:00,
2013-01-25 22:46:00,29.1,23.4,29.88,NNW,348,2.0,2.0,79,0.00,CLR,CLR,0.00,WeatherDisplay:10.34,2013-01-26 05:46:00,
2013-01-25 22:51:00,28.9,22.9,29.88,NW,324,2.0,2.0,78,0.00,CLR,CLR,0.00,WeatherDisplay:10.34,2013-01-26 05:51:00,
2013-01-25 22:56:00,28.6,22.9,29.88,NW,325,4.0,4.0,79,0.00,CLR,CLR,0.00,WeatherDisplay:10.34,2013-01-26 05:56:00,
2013-01-25 23:01:00,28.4,22.7,29.88,NW,323,3.0,3.0,79,0.00,CLR,CLR,0.00,WeatherDisplay:10.34,2013-01-26 06:01:00,
2013-01-25 23:06:00,28.1,22.4,29.88,NW,321,1.0,2.0,79,0.00,CLR,CLR,0.00,WeatherDisplay:10.34,2013-01-26 06:06:00,
2013-01-25 23:11:00,27.9,22.2,29.88,NW,315,1.0,2.0,79,0.00,CLR,CLR,0.00,WeatherDisplay:10.34,2013-01-26 06:11:00,
2013-01-25 23:16:00,27.9,22.5,29.88,NW,314,1.0,1.0,80,0.00,CLR,CLR,0.00,WeatherDisplay:10.34,2013-01-26 06:16:00,
2013-01-25 23:21:00,27.9,22.5,29.88,NNW,334,5.0,5.0,80,0.00,CLR,CLR,0.00,WeatherDisplay:10.34,2013-01-26 06:21:00,
2013-01-25 23:26:00,27.8,22.4,29.88,WNW,286,1.0,0.0,80,0.00,CLR,CLR,0.00,WeatherDisplay:10.34,2013-01-26 06:26:00,
2013-01-25 23:31:00,27.7,22.3,29.88,NW,304,1.0,2.0,80,0.00,CLR,CLR,0.00,WeatherDisplay:10.34,2013-01-26 06:31:00,
2013-01-25 23:36:00,27.7,22.3,29.88,NW,304,1.0,0.0,80,0.00,CLR,CLR,0.00,WeatherDisplay:10.34,2013-01-26 06:36:00,
2013-01-25 23:41:00,27.6,22.2,29.88,North,351,4.0,4.0,80,0.00,CLR,CLR,0.00,WeatherDisplay:10.34,2013-01-26 06:41:00,
2013-01-25 23:46:00,27.5,22.1,29.88,North,350,1.0,2.0,80,0.00,CLR,CLR,0.00,WeatherDisplay:10.34,2013-01-26 06:46:00,
2013-01-25 23:51:00,27.3,21.9,29.87,NW,325,0.0,1.0,80,0.00,CLR,CLR,0.00,WeatherDisplay:10.34,2013-01-26 06:51:00,
2013-01-25 23:56:00,27.3,21.9,29.87,NW,325,0.0,0.0,80,0.00,CLR,CLR,0.00,WeatherDisplay:10.34,2013-01-26 06:56:00,